EWU YMMB-YMEN

Flight info

Callsign EWU
Flight time 0h 12m
Altitude 2000
Route DCT APL DCT
Aircraft C172/L-SFG/C

Departure

Time 2026-04-26 09:14
Airport Melbourne Moorabbin Airport (YMMB)

Arrival

Time 2026-04-26 09:26
Airport Melbourne Essendon Airport (YMEN)
Time Latitude Longitude Altitude Speed Heading
2026-04-26 09:04 -37.97805 145.09526 51 ft 0 kts
2026-04-26 09:07 -37.97782 145.09511 51 ft 4 kts 291°
2026-04-26 09:07 -37.97768 145.09489 51 ft 2 kts
2026-04-26 09:07 -37.97722 145.09502 51 ft 9 kts
2026-04-26 09:08 -37.97677 145.09560 51 ft 10 kts 49°
2026-04-26 09:08 -37.97593 145.09564 51 ft 13 kts 359°
2026-04-26 09:08 -37.97500 145.09557 51 ft 13 kts 360°
2026-04-26 09:08 -37.97478 145.09595 51 ft 1 kts 139°
2026-04-26 09:09 -37.97481 145.09596 51 ft 0 kts 159°
2026-04-26 09:11 -37.97488 145.09601 51 ft 3 kts 142°
2026-04-26 09:11 -37.97489 145.09621 51 ft 2 kts 41°
2026-04-26 09:12 -37.97450 145.09622 51 ft 11 kts 354°
2026-04-26 09:12 -37.97360 145.09615 51 ft 5 kts
2026-04-26 09:12 -37.97347 145.09676 51 ft 8 kts 89°
2026-04-26 09:12 -37.97359 145.09703 51 ft 6 kts 188°
2026-04-26 09:13 -37.97387 145.09705 51 ft 0 kts 173°
2026-04-26 09:13 -37.97396 145.09706 51 ft 12 kts 176°
2026-04-26 09:13 -37.97699 145.09738 73 ft 65 kts 179°
2026-04-26 09:13 -37.98148 145.09731 336 ft 64 kts 185°
2026-04-26 09:14 -37.98577 145.09688 598 ft 62 kts 184°
2026-04-26 09:14 -37.98944 145.09425 798 ft 73 kts 243°
2026-04-26 09:14 -37.98947 145.08733 993 ft 83 kts 264°
2026-04-26 09:14 -37.98798 145.08020 1286 ft 84 kts 302°
2026-04-26 09:15 -37.98254 145.07831 1536 ft 89 kts 11°
2026-04-26 09:15 -37.97587 145.07945 1679 ft 100 kts 351°
2026-04-26 09:15 -37.96963 145.07623 1859 ft 99 kts 326°
2026-04-26 09:15 -37.96306 145.07175 1882 ft 112 kts 323°
2026-04-26 09:16 -37.95621 145.06645 1895 ft 117 kts 322°
2026-04-26 09:16 -37.94928 145.06082 1882 ft 120 kts 320°
2026-04-26 09:16 -37.94259 145.05496 1852 ft 122 kts 319°
2026-04-26 09:16 -37.93576 145.04887 1911 ft 117 kts 319°
2026-04-26 09:17 -37.92906 145.04295 1913 ft 119 kts 319°
2026-04-26 09:17 -37.92216 145.03699 1890 ft 121 kts 320°
2026-04-26 09:17 -37.91518 145.03090 1861 ft 123 kts 320°
2026-04-26 09:17 -37.90800 145.02492 1862 ft 123 kts 322°
2026-04-26 09:18 -37.90080 145.01914 1840 ft 123 kts 322°
2026-04-26 09:18 -37.89354 145.01323 1825 ft 123 kts 321°
2026-04-26 09:18 -37.88642 145.00742 1851 ft 121 kts 321°
2026-04-26 09:18 -37.87939 145.00166 1841 ft 122 kts 321°
2026-04-26 09:19 -37.87225 144.99561 1829 ft 121 kts 320°
2026-04-26 09:19 -37.86534 144.98958 1860 ft 119 kts 319°
2026-04-26 09:19 -37.85866 144.98354 1878 ft 118 kts 317°
2026-04-26 09:19 -37.85170 144.97786 1893 ft 119 kts 327°
2026-04-26 09:20 -37.84397 144.97354 1881 ft 123 kts 332°
2026-04-26 09:20 -37.83598 144.96945 1867 ft 124 kts 334°
2026-04-26 09:20 -37.82810 144.96562 1883 ft 123 kts 334°
2026-04-26 09:20 -37.81999 144.96185 1884 ft 123 kts 335°
2026-04-26 09:21 -37.81190 144.95818 1874 ft 124 kts 335°
2026-04-26 09:21 -37.80382 144.95470 1902 ft 122 kts 338°
2026-04-26 09:21 -37.79568 144.95110 1830 ft 127 kts 334°
2026-04-26 09:21 -37.78751 144.94694 1824 ft 123 kts 333°
2026-04-26 09:22 -37.77955 144.94292 1712 ft 123 kts 334°
2026-04-26 09:22 -37.77157 144.93906 1581 ft 125 kts 335°
2026-04-26 09:22 -37.76323 144.93514 1382 ft 130 kts 333°
2026-04-26 09:22 -37.75509 144.93034 1306 ft 123 kts 331°
2026-04-26 09:23 -37.74742 144.92715 1330 ft 114 kts 355°
2026-04-26 09:23 -37.73947 144.92677 1308 ft 112 kts 358°
2026-04-26 09:23 -37.73185 144.92691 1309 ft 108 kts
2026-04-26 09:23 -37.72421 144.92772 1250 ft 112 kts
2026-04-26 09:24 -37.71669 144.92918 1257 ft 108 kts 11°
2026-04-26 09:24 -37.70935 144.93094 1279 ft 110 kts
2026-04-26 09:24 -37.70287 144.92920 1246 ft 85 kts 323°
2026-04-26 09:24 -37.70045 144.92389 1109 ft 65 kts 266°
2026-04-26 09:25 -37.70063 144.91801 1009 ft 65 kts 258°
2026-04-26 09:25 -37.70128 144.91238 938 ft 69 kts 251°
2026-04-26 09:25 -37.70275 144.90669 891 ft 65 kts 242°
2026-04-26 09:25 -37.70536 144.90237 826 ft 61 kts 209°
2026-04-26 09:26 -37.70924 144.90076 688 ft 57 kts 190°
2026-04-26 09:26 -37.71334 144.90028 553 ft 59 kts 176°
2026-04-26 09:26 -37.71739 144.90060 397 ft 59 kts 178°
2026-04-26 09:26 -37.72135 144.90077 281 ft 49 kts 179°
2026-04-26 09:27 -37.72395 144.90091 275 ft 30 kts 178°
2026-04-26 09:27 -37.72588 144.90102 273 ft 25 kts 178°
2026-04-26 09:27 -37.72732 144.90108 269 ft 14 kts 180°
2026-04-26 09:27 -37.72784 144.90054 267 ft 9 kts 256°
2026-04-26 09:28 -37.72784 144.89986 267 ft 7 kts 307°
2026-04-26 09:28 -37.72765 144.89934 268 ft 6 kts 279°
2026-04-26 09:28 -37.72755 144.89867 268 ft 9 kts 279°
2026-04-26 09:28 -37.72731 144.89796 268 ft 8 kts 326°
2026-04-26 09:29 -37.72722 144.89789 268 ft 0 kts 329°